#timestamp,LO_Frequency,Hit,StdDev 
1609009215.7,286047003.0,N
1609009235.5,286047005.6,Y
1609009255.3,286047002.4,P
1609009275.2,286046999.7,N
1609009295.9,286046999.8,N
1609009315.7,286047000.2,N
1609009335.6,286047002.6,N
1609009355.4,286047001.8,N
1609009375.2,286047001.8,N
1609009395.1,286047003.1,N
1609009396.0,286047003.1,N
1609009415.8,286047005.7,Y
1609009435.6,286047001.6,P
1609009455.5,286047003.0,P
1609009475.3,286047005.7,P
1609009495.1,286047004.8,N
1609009515.9,286047006.3,Y
1609009535.7,286047004.0,P
1609009555.5,286047004.2,P
1609009575.4,286047003.3,P
1609009595.2,286047003.3,Y
1609009615.0,286046999.7,P
1609009615.9,286046999.7,N
1609009635.8,286047004.0,N
1609009655.6,286047004.0,N
1609009675.4,286047003.7,N
1609009695.3,286047003.1,N
1609009715.1,286047003.4,N
1609009716.0,286047003.4,N
1609009735.8,286047004.8,N
1609009755.7,286047006.0,Y
1609009775.5,286047004.0,P
1609009795.3,286047004.2,P
1609009815.2,286047004.1,P
1609009835.9,286047006.0,Y
1609009855.7,286047000.5,P
1609009875.6,286046998.5,N
1609009895.4,286046998.8,N
1609009915.2,286047002.6,N
1609009935.1,286047004.3,N
1609009936.0,286047004.3,N
1609009955.8,286047003.6,N
1609009975.6,286047003.4,N
1609009995.5,286047003.6,N
1609010015.3,286047004.1,N
1609010035.1,286047005.8,N
1609010055.9,286047007.6,Y
1609010075.7,286047003.8,P
1609010095.5,286047004.0,P
1609010115.4,286047002.9,P
1609010135.2,286047002.9,Y
1609010155.0,286047001.9,P
1609010155.9,286047001.9,N
1609010175.8,286047002.1,N
1609010195.6,286047001.6,N
1609010215.4,286047003.1,Y
1609010235.3,286047002.0,P
1609010255.1,286047002.4,P
1609010275.8,286047002.2,P
1609010295.7,286047001.6,Y
1609010315.5,286046999.9,P
1609010335.3,286047002.7,N
1609010355.2,286047002.5,N
1609010375.0,286047002.0,N
1609010375.9,286047002.0,N
1609010395.7,286047004.4,Y
1609010415.6,286047002.0,P
1609010435.4,286047001.6,P
1609010455.2,286047003.9,P
1609010475.1,286047004.1,Y
1609010476.0,286047004.1,P
1609010495.8,286047000.1,N
1609010515.6,286046999.9,N
1609010535.5,286046998.2,N
1609010555.3,286046999.9,N
1609010575.1,286047000.3,N
1609010595.9,286047002.7,N
1609010615.7,286047002.7,N
1609010635.5,286047002.8,N
1609010655.4,286046999.7,N
1609010675.2,286047001.8,N
1609010695.0,286047001.3,N
1609010695.9,286047001.3,N
1609010715.8,286047001.7,N
1609010735.6,286047001.7,N
1609010755.4,286047002.4,N
1609010775.3,286047002.0,N
1609010795.1,286047001.9,N
1609010815.8,286047002.0,N
1609010835.7,286047001.7,N
1609010855.5,286047002.8,N
1609010875.3,286047000.2,N
1609010895.2,286046999.7,N
1609010915.9,286047001.8,N
1609010935.7,286047002.6,N
1609010955.6,286047004.4,Y
1609010975.4,286047002.3,P
1609010995.2,286046999.9,N
1609011015.1,286047002.5,N
1609011016.0,286047002.5,N
1609011035.8,286047002.1,N
1609011055.6,286047001.0,N
1609011075.5,286047000.8,N
1609011095.3,286047000.4,N
1609011115.1,286047000.3,N
1609011135.9,286047000.6,N
1609011155.7,286047000.8,N
1609011175.5,286046999.7,N
1609011195.4,286047000.9,N
1609011215.2,286047000.9,N
1609011235.0,286046998.4,N
1609011235.9,286046998.4,N
1609011255.8,286047000.6,N
1609011275.6,286046999.2,N
1609011295.4,286047001.2,N
1609011315.3,286046998.9,N
1609011335.1,286046999.4,N
1609011336.0,286046999.4,N
1609011355.8,286046998.4,N
1609011375.7,286046999.1,N
1609011395.5,286046999.5,N
1609011415.3,286046998.8,N
1609011435.2,286046999.2,N
1609011455.9,286046996.6,N
1609011475.7,286046997.0,N
1609011495.6,286046996.7,N
1609011515.4,286046995.3,Y
1609011535.2,286046995.0,P
1609011555.1,286046994.9,N
1609011556.0,286046994.9,N
1609011575.8,286046995.4,N
1609011595.6,286046998.0,N
1609011615.5,286046995.3,N
1609011635.3,286046995.1,N
1609011655.1,286046994.3,Y
1609011675.9,286046997.0,P
1609011695.7,286046996.5,P
1609011715.5,286046996.5,P
1609011735.4,286046996.8,Y
1609011755.2,286047001.9,P
1609011775.0,286046999.8,N
1609011775.9,286046999.8,N
1609011795.8,286047000.2,N
1609011815.6,286047000.6,N
1609011835.4,286046998.8,N
1609011855.2,286046998.4,N
1609011875.1,286046999.0,N
1609011876.0,286046999.0,N
1609011895.8,286046998.4,N
1609011915.6,286046996.9,N
1609011935.5,286046997.4,N
1609011955.3,286046997.5,N
1609011975.1,286046997.6,N
1609011995.9,286046995.7,Y
1609012015.7,286046996.7,P
1609012035.5,286046997.1,N
1609012055.4,286046997.8,N
1609012075.2,286046995.0,Y
1609012095.0,286046998.9,P
1609012095.9,286046998.9,N
1609012115.8,286046996.9,P
1609012135.6,286046997.0,Y
1609012155.4,286046998.4,P
1609012175.3,286046996.6,P
1609012195.1,286046998.3,N
1609012215.8,286046999.2,N
1609012235.7,286046996.8,Y
1609012255.5,286046999.0,P
1609012275.3,286046998.4,P
1609012295.2,286046999.4,N
1609012315.0,286046998.4,Y
1609012315.9,286046998.4,P
1609012335.8,286047000.7,P
1609012355.6,286046998.6,N
1609012375.4,286046996.5,Y
1609012395.3,286046997.0,P
1609012415.1,286046999.5,N
1609012416.0,286046999.5,N
1609012435.8,286046996.8,Y
1609012455.7,286046999.4,P
1609012475.5,286046997.4,P
1609012495.3,286046996.8,P
1609012515.2,286046996.6,Y
1609012535.9,286046999.6,P
1609012555.7,286046997.1,P
1609012575.6,286046997.2,N
1609012595.4,286046997.5,N
1609012615.2,286046995.0,Y
1609012635.1,286046997.4,P
1609012636.0,286046997.4,P
1609012655.8,286046997.0,P
1609012675.6,286046997.8,Y
1609012695.5,286046998.6,P
1609012715.3,286046999.0,N
1609012735.1,286046996.5,P
1609012755.9,286046996.7,Y
1609012775.7,286047001.0,P
1609012795.5,286046998.2,N
